SCP
2 2 2 2 2 2 1 1 1 1 1 1 2 1 1 1 1 1 1 1 1 2 2 3 3 4 4 3 3 3 2 2 1 1 1 1 1 0 0 0 0 0 0
3 2 1 2 2 2 1 1 1 1 2 2 2 2 1 1 1 1 1 1 1 1 2 3 3 3 4 3 3 2 2 1 1 1 1 0 0 0 0 0 0 0 0
2 2 1 1 1 2 2 1 1 2 3 4 4 3 2 1 1 1 1 1 1 1 1 2 2 3 3 3 2 2 1 1 1 1 0 0 0 0 0 0 0 0 0
2 1 1 1 1 1 1 2 2 3 4 6 5 4 2 2 1 1 1 1 1 1 1 1 1 2 2 3 2 2 1 1 1 1 0 0 0 0 0 0 0 0 0
1 1 1 1 1 1 1 3 4 4 6 7 6 4 3 2 2 2 1 1 1 1 1 1 1 1 1 2 2 2 1 1 1 1 1 0 0 0 0 0 0 0 0
1 1 1 0 0 1 2 3 5 6 7 7 6 4 3 2 2 2 1 1 1 1 1 0 0 0 1 1 1 2 1 1 1 1 1 1 0 0 0 0 0 0 0
1 1 1 0 0 1 2 4 6 7 9 8 7 4 2 2 1 1 1 1 1 1 1 1 0 0 0 1 1 1 1 1 1 1 1 1 0 0 0 0 0 0 0
1 1 1 1 1 1 3 5 7 9 10 9 7 4 2 1 1 1 1 1 1 1 1 1 1 1 0 0 1 1 1 1 1 1 1 0 0 0 0 0 0 0 0
1 1 1 1 1 2 3 6 9 11 12 11 8 4 2 1 1 1 1 0 0 0 0 1 1 1 0 0 0 1 1 1 1 1 1 0 0 0 0 0 0 0 0
1 1 1 1 1 1 3 6 11 14 15 13 9 5 2 1 1 1 0 0 0 0 0 1 1 1 0 0 0 0 0 0 0 0 0 0 0 0 0 0 0 0 0
1 1 1 1 0 1 2 6 11 16 17 15 11 6 2 1 1 0 0 0 0 0 0 0 0 0 0 0 0 0 0 0 0 0 0 0 0 0 0 0 0 0 0
1 1 1 1 0 1 2 5 10 15 17 15 11 6 3 1 0 0 0 0 0 0 0 0 0 0 0 0 0 0 0 0 0 0 0 0 0 0 0 0 0 0 0
1 1 1 1 0 1 1 4 7 11 14 12 9 6 4 2 1 0 0 0 0 0 0 0 0 0 0 0 0 0 0 0 0 0 0 0 0 0 0 0 0 0 0
1 1 1 1 1 1 1 2 3 6 7 7 6 4 3 3 2 1 0 0 0 0 0 0 0 0 0 0 0 0 0 0 0 0 0 0 0 0 0 0 0 0 0
0 1 1 1 1 0 0 1 1 1 2 2 2 2 1 1 1 0 0 0 0 0 0 0 0 0 0 0 0 0 0 0 0 0 0 0 0 0 0 0 0 0 0
0 1 1 1 1 0 0 0 0 0 0 1 1 0 0 0 0 0 0 0 0 0 0 0 0 0 0 0 0 0 0 0 0 0 0 0 0 0 0 0 0 0 0
0 0 0 0 0 0 0 0 0 0 0 0 0 0 0 0 0 0 0 0 0 0 0 0 0 0 0 0 0 0 0 0 0 0 0 0 0 0 0 0 0 0 0
0 0 0 0 0 0 0 0 0 0 0 0 0 0 0 0 0 0 0 0 0 0 0 0 0 0 0 0 0 0 0 0 0 0 0 0 0 0 0 0 0 0 0
0 0 0 0 0 0 0 0 0 0 0 0 0 0 0 0 0 0 0 0 0 0 0 0 0 0 0 0 0 0 0 0 0 0 0 0 0 0 0 0 0 0 0
0 0 0 0 0 0 0 0 0 0 0 0 0 0 0 0 0 0 0 0 0 0 0 0 0 0 0 0 0 0 0 0 0 0 0 0 0 0 0 0 0 0 0
0 0 0 0 0 0 0 0 0 0 0 0 0 0 0 0 0 0 0 0 0 0 0 0 0 0 0 0 0 0 0 0 0 0 0 0 0 0 0 0 0 0 0
0 0 0 0 0 0 1 1 0 0 0 0 0 0 0 0 0 0 0 0 0 0 0 0 0 0 0 0 0 0 0 0 0 0 0 0 0 0 0 0 0 0 0
0 0 0 1 1 1 1 1 1 0 0 0 0 0 0 0 0 0 0 0 0 0 0 0 0 0 0 0 0 0 0 0 0 0 0 0 0 0 0 0 0 0 0
0 0 0 1 1 1 1 1 1 0 0 0 0 0 0 0 0 0 0 0 0 0 0 0 0 0 0 0 0 0 0 0 0 0 0 0 0 0 0 0 0 0 0
0 0 0 0 0 0 1 1 1 0 0 0 0 0 0 0 0 0 0 0 0 0 0 0 0 0 0 0 0 0 0 0 0 0 0 0 0 0 0 0 0 0 0
0 0 0 0 0 0 0 1 0 0 0 0 0 0 0 0 0 0 0 0 0 0 0 0 0 0 0 0 0 0 0 0 0 0 0 0 0 0 0 0 0 0 0
Wind_Speed
4 3 3 4 4 4 4 4 4 3 3 2 2 2 1 1 1 1 1 1 1 2 2 2 1 1 1 1 1 1 1 0 0 1 2 2 1 1 1 1 1 2 2
3 3 3 4 5 5 5 5 5 4 4 3 2 2 2 1 1 1 1 1 1 2 2 2 2 2 2 1 1 1 1 0 1 2 1 2 2 2 2 1 1 2 2
6 5 5 4 4 4 5 5 5 5 4 4 3 2 2 1 1 0 0 1 1 2 2 2 2 2 2 2 2 2 2 1 0 1 2 2 1 2 2 2 1 1 1
4 5 5 5 5 5 4 4 4 3 3 4 4 4 3 3 2 1 1 1 2 2 2 2 2 2 2 2 2 2 2 2 1 0 1 1 2 1 1 2 2 2 2
5 5 6 6 5 4 4 3 3 3 3 4 4 4 3 2 1 1 2 1 1 1 2 2 2 2 2 2 2 2 2 2 2 2 2 1 1 1 1 2 2 2 2
3 4 4 3 3 3 3 4 4 3 3 4 4 4 5 4 3 2 2 2 1 1 2 2 2 3 2 2 3 2 3 2 2 2 2 2 2 2 2 2 2 2 2
2 3 4 4 4 4 4 4 5 3 3 3 3 4 4 4 4 3 3 2 1 1 2 3 3 3 3 2 2 2 2 2 3 3 2 2 2 2 2 2 2 2 2
3 3 4 4 4 4 4 5 5 4 3 3 3 2 3 2 2 3 3 3 2 2 2 3 2 2 2 2 2 2 2 2 2 2 2 2 2 2 2 3 2 1 2
3 3 3 3 3 3 3 4 5 4 3 3 2 2 2 3 3 3 2 2 2 2 2 2 2 2 2 2 2 2 1 2 2 2 2 1 1 1 2 2 2 2 2
2 3 3 3 2 2 2 3 3 3 3 3 3 2 2 2 2 2 2 2 2 1 2 2 2 1 2 2 2 2 2 2 2 1 1 1 1 1 1 2 2 2 3
3 2 2 2 2 2 2 3 3 2 2 2 2 2 1 1 1 1 2 2 1 2 2 2 2 2 1 2 2 2 2 2 1 1 2 2 1 1 1 1 2 2 3
2 2 2 2 2 2 2 2 2 2 3 3 2 2 1 1 1 1 1 1 1 1 2 2 2 2 2 2 2 2 2 2 2 2 2 2 1 1 1 1 1 2 3
2 2 2 2 2 2 2 2 2 2 2 2 2 2 2 2 2 2 1 1 1 1 1 1 2 2 2 2 2 2 2 2 3 3 3 3 2 2 1 2 2 2 2
3 2 2 1 1 2 2 2 2 2 2 2 3 2 2 2 1 1 1 1 2 2 1 1 2 2 2 2 2 1 1 1 2 2 3 3 3 4 3 2 3 2 2
3 3 3 2 2 2 2 2 2 2 2 2 2 2 2 1 1 2 1 1 1 2 1 1 1 1 2 2 2 2 2 2 2 2 3 3 4 4 4 3 3 3 2
4 4 4 3 3 3 3 3 3 2 3 3 2 2 2 2 2 2 2 1 1 1 1 1 2 1 2 2 3 2 2 2 2 2 3 3 3 4 4 5 5 5 4
5 5 4 4 4 4 4 4 4 3 3 3 2 2 2 2 2 2 2 2 1 1 1 1 2 2 3 3 4 4 3 3 3 3 2 2 2 3 3 4 4 5 6
4 4 4 4 3 3 3 2 3 3 3 3 3 3 3 3 2 2 2 2 1 2 2 2 2 2 3 3 4 3 2 2 3 3 3 3 4 3 3 3 3 4 4
4 4 4 3 2 2 3 3 2 3 3 3 4 3 3 3 3 3 3 2 2 2 2 2 2 2 3 4 4 3 1 2 3 3 3 3 4 5 3 2 3 4 5
3 3 2 2 2 2 3 4 3 3 3 4 4 4 4 4 3 3 3 2 2 3 2 2 2 3 4 4 4 4 2 2 3 3 3 4 5 5 4 3 4 5 5
2 2 2 2 3 3 4 4 3 4 4 3 3 3 3 3 3 3 2 2 2 1 1 2 3 3 4 4 4 4 3 3 3 3 3 3 5 5 5 4 4 6 5
1 2 2 2 2 3 4 4 4 5 3 2 2 2 3 3 2 2 2 1 2 2 2 2 3 3 3 3 4 5 6 5 4 4 3 3 5 5 5 4 5 6 4
1 1 2 2 2 2 4 5 4 3 2 2 2 2 2 2 2 3 2 1 2 2 2 2 2 3 2 3 5 5 6 6 4 3 4 4 5 5 4 5 6 4 3
1 1 2 2 2 2 3 4 3 2 3 3 2 2 2 2 2 2 2 2 2 2 3 3 3 3 2 2 2 2 3 4 3 3 3 4 4 3 4 4 3 3 3
1 1 2 3 3 2 3 3 2 3 3 3 3 2 2 2 2 2 2 3 4 4 4 4 3 3 3 4 4 2 2 2 2 1 1 1 2 2 2 3 3 3 2
1 1 2 2 3 2 3 3 3 4 4 3 3 2 2 2 2 2 2 2 3 4 6 6 5 4 5 5 5 5 4 3 2 2 1 2 3 3 4 4 4 3 3
Wind_Direction
210 173 172 163 154 162 169 174 175 171 155 152 154 152 172 183 171 184 191 181 175 161 160 173 154 149 160 183 168 145 111 39 58 60 357 339 333 322 308 288 284 282 270
184 175 175 172 177 178 179 182 183 182 179 178 169 153 153 168 189 208 204 200 190 174 177 168 175 177 163 160 171 154 145 154 130 125 91 347 340 340 335 318 283 290 284
190 187 186 186 186 192 194 190 189 186 180 170 136 113 89 71 99 147 197 219 200 186 179 180 179 181 173 185 194 186 168 182 143 120 145 153 239 307 320 328 335 329 317
187 190 192 190 197 207 197 187 178 173 165 160 159 159 164 183 199 189 200 220 205 189 183 184 177 183 181 185 198 184 186 170 188 164 164 169 169 182 299 315 324 325 320
193 200 201 201 200 196 180 178 160 166 163 164 172 170 182 197 180 161 177 198 223 203 186 187 185 191 190 191 192 184 185 181 189 187 178 167 160 188 204 276 304 310 298
200 199 191 172 176 173 163 161 155 171 173 172 178 182 188 185 166 172 187 202 216 217 205 199 201 199 195 196 198 192 190 195 190 191 182 178 178 189 191 229 266 283 287
181 176 169 164 173 170 167 164 159 175 183 177 184 188 193 187 188 193 198 204 209 220 217 207 208 205 203 198 186 186 201 193 187 193 199 195 201 188 182 199 237 266 284
177 179 178 171 172 172 170 166 165 177 182 187 198 192 190 189 200 204 202 206 211 220 211 200 205 204 194 182 167 169 194 188 189 193 192 191 207 197 191 189 195 250 279
183 181 168 162 165 165 167 171 168 174 187 189 185 191 193 197 209 215 206 212 222 220 203 195 187 184 181 177 161 169 189 180 192 197 191 197 220 211 208 199 195 197 244
193 183 170 163 161 162 157 158 166 184 194 184 185 186 192 199 197 186 204 210 217 210 193 185 162 169 182 182 170 177 192 182 207 197 179 201 225 213 204 202 204 206 213
196 189 176 161 150 144 156 168 173 170 170 178 179 166 186 182 160 169 205 207 204 191 190 185 170 177 193 193 174 183 184 191 207 205 196 215 206 198 215 203 205 215 212
183 169 161 145 148 163 173 177 179 177 189 184 170 172 178 150 150 186 208 198 200 204 194 182 172 194 204 197 190 205 193 191 205 216 205 223 207 207 222 208 221 229 217
173 142 133 161 183 180 181 189 189 192 197 170 158 163 177 177 186 196 199 192 193 204 181 169 183 197 193 186 200 207 206 211 216 210 208 221 204 227 236 232 235 239 238
182 168 172 200 206 195 188 193 201 195 184 168 165 177 197 192 195 192 192 199 189 187 191 191 200 207 203 195 190 183 191 228 236 224 221 222 213 219 225 232 236 231 240
189 191 194 202 204 210 208 201 201 188 171 164 175 195 195 168 178 194 201 207 196 188 187 186 198 201 199 198 186 194 198 210 241 246 241 240 232 230 226 228 226 218 232
205 206 205 205 204 210 217 211 199 187 161 166 187 185 175 175 197 201 199 191 190 188 173 180 192 211 223 204 200 195 205 211 224 246 260 260 252 252 247 245 238 227 230
205 204 209 211 215 213 209 205 198 175 163 174 186 186 181 197 212 201 185 197 207 195 197 214 204 224 236 215 210 209 194 210 227 239 251 258 262 253 252 264 266 256 251
212 214 213 217 223 210 197 194 180 164 174 188 195 193 191 199 200 195 207 217 216 214 223 234 231 238 249 228 217 209 199 224 246 246 242 245 264 260 249 254 267 273 268
212 220 213 208 211 194 175 157 169 175 181 200 209 207 197 195 197 208 223 224 209 224 228 229 224 230 254 238 219 197 200 241 265 264 251 242 253 264 250 241 262 279 285
213 217 206 178 180 196 157 157 182 184 207 220 218 208 200 199 205 216 225 220 208 227 227 233 232 230 247 245 225 199 197 235 263 274 268 252 252 260 240 227 238 264 278
213 192 190 189 205 183 156 176 195 215 223 224 217 209 201 201 206 206 211 213 216 224 228 241 258 250 249 250 234 213 200 217 241 257 267 267 261 255 246 229 234 250 265
214 180 188 217 219 175 166 187 213 224 215 194 202 213 210 209 201 198 215 209 192 199 228 252 280 278 263 247 244 230 222 217 223 247 261 271 274 265 257 245 258 263 266
239 209 199 216 236 196 180 197 221 213 187 184 211 235 237 216 195 194 210 210 196 201 223 232 254 275 276 260 247 240 235 226 225 252 263 277 284 277 267 263 264 263 256
226 215 191 204 232 224 206 214 218 185 175 197 219 225 222 223 215 207 202 201 206 216 224 228 240 261 275 271 257 246 244 235 234 255 276 284 285 278 280 283 267 251 248
226 204 198 208 226 222 222 226 204 172 188 209 218 225 221 210 217 224 220 216 223 212 210 222 219 225 254 259 235 217 233 231 230 231 279 292 299 308 305 296 280 266 259
232 233 230 225 228 211 223 229 204 188 192 208 217 217 223 218 212 221 283 284 254 244 227 223 218 232 242 257 259 250 247 243 185 161 251 270 277 284 291 294 293 278 266